Location: Eppenbrunn
(49.1158°N, 7.5601°E)
Time: 08:27:06
(UTC+00:00)

Spot 2 Rocket - Pass Details

Date: 09 April 2020
Orbit: 756 x 773 km, 98.6° (Epoch: 24 May)

Event Time Altitude Azimuth Distance (km) Brightness Sun altitude
Exits shadow 20:22:14 34° 161° (SSE) 1,263 4.2 -19.6°
Maximum altitude 20:24:33 87° 76° (ENE) 780 3.4 -19.9°
Drops below altitude 10° 20:29:42 10° 346° (NNW) 2,323 6.8 -20.5°
Sets 20:32:01 0° 346° (NNW) 3,252 7.7 -20.8°
